| time (UTC) | temp F | wind direction | speed knots | gust knots | rain 1hr in | rain 24hr in | rain mn in | humidity % | barometer mb |
| 20260509224001 | 62 | 194 | 0.0 | 2.6 | 0.00 | 0.20 | 0.20 | 75 | 1009.7 |
| 20260509221001 | 62 | 211 | 0.0 | 0.0 | 0.00 | 0.20 | 0.20 | 77 | 1009.8 |
| 20260509220004 | 61 | 211 | 0.9 | 2.6 | 0.00 | 0.20 | 0.20 | 77 | 1009.7 |
| 20260509215002 | 61 | 221 | 0.9 | 0.9 | 0.00 | 0.20 | 0.20 | 82 | 1009.8 |
| 20260509214001 | 61 | 221 | 0.9 | 2.6 | 0.00 | 0.20 | 0.20 | 80 | 1009.9 |
| 20260509213002 | 60 | 221 | 0.0 | 1.7 | 0.00 | 0.20 | 0.20 | 85 | 1010.0 |
| 20260509212001 | 60 | 223 | 0.0 | 1.7 | 0.00 | 0.20 | 0.20 | 86 | 1010.1 |
| 20260509211002 | 59 | 92 | 0.0 | 0.0 | 0.00 | 0.20 | 0.20 | 90 | 1010.2 |
| 20260509210003 | 58 | 91 | 0.9 | 2.6 | 0.00 | 0.20 | 0.20 | 90 | 1010.4 |
| 20260509204001 | 57 | 88 | 0.0 | 0.0 | 0.00 | 0.20 | 0.20 | 92 | 1010.8 |
| 20260509203001 | 57 | 88 | 0.0 | 0.0 | 0.00 | 0.20 | 0.20 | 93 | 1010.9 |
| 20260509202001 | 57 | 88 | 0.0 | 0.0 | 0.00 | 0.20 | 0.20 | 92 | 1011.1 |
| 20260509201001 | 56 | 88 | 0.0 | 1.7 | 0.00 | 0.20 | 0.20 | 92 | 1010.9 |
| 20260509200003 | 56 | 88 | 0.0 | 0.0 | 0.00 | 0.20 | 0.20 | 92 | 1010.7 |
| 20260509195001 | 57 | 88 | 0.0 | 0.0 | 0.00 | 0.20 | 0.20 | 92 | 1010.6 |
| 20260509193002 | 57 | 88 | 0.9 | 1.7 | 0.00 | 0.20 | 0.20 | 92 | 1011.1 |
| 20260509192002 | 57 | 88 | 0.9 | 2.6 | 0.01 | 0.20 | 0.20 | 92 | 1011.1 |
| 20260509191001 | 57 | 117 | 0.0 | 0.0 | 0.01 | 0.20 | 0.20 | 93 | 1011.3 |
| 20260509190004 | 57 | 117 | 0.0 | 0.0 | 0.01 | 0.20 | 0.20 | 93 | 1011.4 |
| 20260509185002 | 57 | 117 | 0.0 | 0.0 | 0.01 | 0.20 | 0.20 | 93 | 1011.6 |
| 20260509184000 | 56 | 117 | 0.0 | 0.0 | 0.01 | 0.20 | 0.20 | 92 | 1011.8 |
| 20260509183001 | 56 | 117 | 0.0 | 0.0 | 0.01 | 0.20 | 0.20 | 92 | 1011.6 |
| 20260509182000 | 56 | 117 | 0.0 | 0.0 | 0.00 | 0.19 | 0.19 | 92 | 1011.7 |
| 20260509180001 | 55 | 123 | 0.0 | 0.0 | 0.00 | 0.19 | 0.19 | 92 | 1011.5 |
| 20260509175000 | 55 | 123 | 0.0 | 0.0 | 0.01 | 0.19 | 0.19 | 92 | 1011.7 |
| 20260509174000 | 55 | 123 | 0.0 | 0.0 | 0.01 | 0.19 | 0.19 | 93 | 1011.8 |
| 20260509173000 | 54 | 123 | 0.0 | 0.0 | 0.01 | 0.19 | 0.19 | 92 | 1012.1 |
| 20260509172000 | 54 | 123 | 0.0 | 0.0 | 0.02 | 0.19 | 0.19 | 92 | 1012.4 |
| 20260509171000 | 54 | 123 | 0.0 | 0.0 | 0.02 | 0.19 | 0.19 | 92 | 1012.3 |
| 20260509170001 | 54 | 123 | 0.9 | 2.6 | 0.03 | 0.19 | 0.19 | 92 | 1012.4 |
| 20260509165000 | 54 | 115 | 0.0 | 1.7 | 0.03 | 0.18 | 0.18 | 92 | 1012.4 |
| 20260509164000 | 54 | 71 | 0.0 | 0.9 | 0.04 | 0.18 | 0.18 | 93 | 1012.3 |
| 20260509163000 | 54 | 117 | 0.0 | 1.7 | 0.06 | 0.18 | 0.18 | 92 | 1011.8 |
| 20260509162000 | 53 | 59 | 0.0 | 1.7 | 0.08 | 0.17 | 0.17 | 91 | 1011.6 |
| 20260509161000 | 53 | 59 | 1.7 | 3.5 | 0.12 | 0.17 | 0.17 | 90 | 1011.4 |
| 20260509160004 | 54 | 59 | 0.0 | 1.7 | 0.13 | 0.16 | 0.16 | 90 | 1011.9 |
| 20260509155000 | 54 | 59 | 0.0 | 1.7 | 0.13 | 0.15 | 0.15 | 90 | 1012.2 |
| 20260509154000 | 54 | 59 | 0.0 | 0.0 | 0.13 | 0.14 | 0.14 | 89 | 1012.5 |
| 20260509153000 | 54 | 59 | 0.0 | 0.0 | 0.11 | 0.12 | 0.12 | 88 | 1012.9 |
| 20260509152001 | 54 | 59 | 0.0 | 0.0 | 0.09 | 0.09 | 0.09 | 88 | 1013.1 |
| 20260509151000 | 54 | 59 | 0.0 | 0.0 | 0.05 | 0.05 | 0.05 | 87 | 1013.2 |
| 20260509144000 | 55 | 59 | 0.0 | 0.0 | 0.01 | 0.01 | 0.01 | 84 | 1012.6 |
| 20260509143000 | 55 | 59 | 0.0 | 0.0 | 0.01 | 0.01 | 0.01 | 82 | 1012.5 |
| 20260509142000 | 55 | 59 | 0.0 | 0.0 | 0.00 | 0.00 | 0.00 | 81 | 1012.5 |
| 20260509141000 | 55 | 59 | 0.0 | 0.0 | 0.00 | 0.00 | 0.00 | 80 | 1012.5 |
| 20260509140001 | 55 | 59 | 0.0 | 0.0 | 0.00 | 0.00 | 0.00 | 80 | 1012.2 |
| 20260509135001 | 55 | 59 | 0.0 | 0.0 | 0.00 | 0.00 | 0.00 | 81 | 1012.2 |
| 20260509133000 | 55 | 59 | 0.0 | 0.0 | 0.00 | 0.00 | 0.00 | 82 | 1012.3 |
| 20260509132000 | 54 | 59 | 0.0 | 0.0 | 0.00 | 0.00 | 0.00 | 82 | 1012.1 |
| 20260509131000 | 54 | 59 | 0.0 | 0.0 | 0.00 | 0.00 | 0.00 | 83 | 1011.9 |
| 20260509130001 | 54 | 59 | 0.0 | 1.7 | 0.00 | 0.00 | 0.00 | 84 | 1011.7 |
| 20260509125000 | 54 | 59 | 0.0 | 0.0 | 0.00 | 0.00 | 0.00 | 83 | 1011.5 |
| 20260509124000 | 54 | 59 | 0.0 | 2.6 | 0.00 | 0.00 | 0.00 | 83 | 1011.5 |
| 20260509123000 | 54 | 60 | 0.0 | 0.0 | 0.00 | 0.00 | 0.00 | 81 | 1012.0 |
| 20260509122000 | 54 | 60 | 0.0 | 0.0 | 0.00 | 0.00 | 0.00 | 80 | 1012.4 |
| 20260509121000 | 54 | 60 | 0.0 | 0.0 | 0.00 | 0.00 | 0.00 | 80 | 1012.4 |
| 20260509120001 | 54 | 60 | 0.0 | 0.0 | 0.00 | 0.00 | 0.00 | 80 | 1012.2 |
| 20260509114959 | 54 | 60 | 0.0 | 0.0 | 0.00 | 0.00 | 0.00 | 79 | 1012.0 |
| 20260509114000 | 54 | 60 | 0.0 | 0.0 | 0.00 | 0.00 | 0.00 | 78 | 1011.7 |
| 20260509113000 | 53 | 60 | 0.0 | 0.0 | 0.00 | 0.00 | 0.00 | 78 | 1011.8 |
| 20260509112000 | 53 | 60 | 0.0 | 0.0 | 0.00 | 0.00 | 0.00 | 78 | 1012.0 |
| 20260509111000 | 53 | 65 | 0.0 | 0.9 | 0.00 | 0.00 | 0.00 | 77 | 1011.6 |
| 20260509110001 | 53 | 65 | 0.0 | 1.7 | 0.00 | 0.00 | 0.00 | 76 | 1011.6 |
| 20260509105001 | 53 | 65 | 0.0 | 2.6 | 0.00 | 0.00 | 0.00 | 75 | 1011.4 |
| 20260509104000 | 53 | 78 | 0.9 | 1.7 | 0.00 | 0.00 | 0.00 | 75 | 1011.3 |
| 20260509103000 | 53 | 86 | 0.9 | 2.6 | 0.00 | 0.00 | 0.00 | 74 | 1011.3 |
| 20260509102000 | 53 | 78 | 0.0 | 0.0 | 0.00 | 0.00 | 0.00 | 74 | 1011.4 |
| 20260509101000 | 53 | 78 | 0.9 | 2.6 | 0.00 | 0.00 | 0.00 | 74 | 1011.4 |
| 20260509100001 | 53 | 79 | 0.0 | 2.6 | 0.00 | 0.00 | 0.00 | 74 | 1011.3 |
| 20260509095000 | 53 | 72 | 0.9 | 1.7 | 0.00 | 0.00 | 0.00 | 73 | 1011.1 |
| 20260509094000 | 53 | 72 | 0.9 | 1.7 | 0.00 | 0.00 | 0.00 | 74 | 1011.2 |
| 20260509093000 | 54 | 70 | 0.0 | 0.0 | 0.00 | 0.00 | 0.00 | 73 | 1011.4 |
| 20260509092000 | 54 | 70 | 0.0 | 0.0 | 0.00 | 0.00 | 0.00 | 73 | 1011.4 |
| 20260509091000 | 54 | 70 | 0.0 | 1.7 | 0.00 | 0.00 | 0.00 | 73 | 1011.2 |
| 20260509090001 | 54 | 70 | 0.0 | 1.7 | 0.00 | 0.00 | 0.00 | 73 | 1011.3 |
| 20260509085000 | 54 | 70 | 0.9 | 1.7 | 0.00 | 0.00 | 0.00 | 74 | 1011.3 |
| 20260509084000 | 53 | 53 | 0.0 | 0.0 | 0.00 | 0.00 | 0.00 | 75 | 1011.4 |
| 20260509083000 | 53 | 53 | 0.0 | 0.0 | 0.00 | 0.00 | 0.00 | 75 | 1011.6 |
| 20260509082001 | 53 | 53 | 0.0 | 0.0 | 0.00 | 0.00 | 0.00 | 76 | 1011.6 |
| 20260509081000 | 52 | 53 | 0.0 | 0.0 | 0.00 | 0.00 | 0.00 | 77 | 1011.5 |
| 20260509080001 | 52 | 53 | 0.0 | 0.0 | 0.00 | 0.00 | 0.00 | 77 | 1011.7 |
| 20260509075000 | 52 | 53 | 0.0 | 0.0 | 0.00 | 0.00 | 0.00 | 76 | 1011.7 |
| 20260509074000 | 52 | 53 | 0.0 | 0.0 | 0.00 | 0.00 | 0.00 | 77 | 1011.7 |
| 20260509073000 | 53 | 53 | 0.0 | 0.0 | 0.00 | 0.00 | 0.00 | 76 | 1011.9 |
| 20260509072000 | 52 | 53 | 0.0 | 0.0 | 0.00 | 0.00 | 0.00 | 75 | 1011.8 |
| 20260509071000 | 52 | 53 | 0.0 | 0.0 | 0.00 | 0.00 | 0.00 | 76 | 1011.9 |
| 20260509070001 | 53 | 51 | 0.0 | 0.0 | 0.00 | 0.00 | 0.00 | 75 | 1012.2 |
| 20260509065000 | 54 | 51 | 0.0 | 0.0 | 0.00 | 0.00 | 0.00 | 73 | 1012.2 |
| 20260509064000 | 54 | 51 | 0.0 | 0.0 | 0.00 | 0.00 | 0.00 | 71 | 1012.2 |
| 20260509062959 | 55 | 51 | 0.9 | 2.6 | 0.00 | 0.00 | 0.00 | 70 | 1012.2 |
| 20260509062000 | 55 | 47 | 0.0 | 0.0 | 0.00 | 0.00 | 0.00 | 69 | 1012.4 |
| 20260509061000 | 56 | 47 | 0.0 | 0.9 | 0.00 | 0.00 | 0.00 | 67 | 1012.4 |
| 20260509060001 | 56 | 47 | 0.0 | 0.0 | 0.00 | 0.00 | 0.00 | 67 | 1012.3 |
| 20260509053958 | 55 | 47 | 0.9 | 4.3 | 0.00 | 0.00 | 0.00 | 69 | 1012.4 |
| 20260509052958 | 55 | 335 | 0.0 | 0.0 | 0.00 | 0.00 | 0.00 | 72 | 1012.5 |
| 20260509050959 | 54 | 302 | 0.0 | 0.0 | 0.00 | 0.00 | 0.00 | 74 | 1012.7 |
| 20260509045959 | 54 | 302 | 0.0 | 0.0 | 0.00 | 0.00 | 0.00 | 75 | 1012.7 |
| 20260509044958 | 54 | 302 | 0.0 | 0.0 | 0.00 | 0.00 | 0.00 | 74 | 1012.8 |
| 20260509044001 | 55 | 302 | 0.0 | 0.0 | 0.00 | 0.00 | 0.00 | 74 | 1012.8 |
| 20260509042001 | 55 | 302 | 0.0 | 0.0 | 0.00 | 0.00 | 0.00 | 72 | 1012.8 |
| 20260509041001 | 55 | 302 | 0.0 | 0.0 | 0.00 | 0.00 | 0.00 | 70 | 1012.6 |
| 20260509040005 | 55 | 302 | 0.0 | 0.0 | 0.00 | 0.00 | 0.00 | 70 | 1012.7 |
| 20260509032003 | 56 | 302 | 0.0 | 0.0 | 0.00 | 0.00 | 0.00 | 70 | 1013.1 |
| 20260509031000 | 56 | 302 | 0.0 | 0.0 | 0.00 | 0.00 | 0.00 | 69 | 1013.2 |
| 20260509030004 | 56 | 302 | 0.0 | 0.0 | 0.00 | 0.00 | 0.00 | 68 | 1013.4 |
| 20260509024001 | 56 | 302 | 0.0 | 0.0 | 0.00 | 0.00 | 0.00 | 67 | 1013.3 |
| 20260509023002 | 56 | 302 | 0.0 | 0.0 | 0.00 | 0.00 | 0.00 | 69 | 1012.8 |
| 20260509022001 | 57 | 302 | 0.0 | 0.0 | 0.00 | 0.00 | 0.00 | 67 | 1012.7 |
| 20260509021001 | 57 | 302 | 0.0 | 0.0 | 0.00 | 0.00 | 0.00 | 67 | 1012.8 |
| 20260509020004 | 57 | 302 | 0.0 | 0.0 | 0.00 | 0.00 | 0.00 | 65 | 1012.7 |
| 20260509015001 | 57 | 302 | 0.0 | 0.0 | 0.00 | 0.00 | 0.00 | 66 | 1012.8 |
| 20260509013000 | 57 | 302 | 0.0 | 0.0 | 0.00 | 0.00 | 0.00 | 65 | 1012.8 |
| 20260509012001 | 58 | 302 | 0.0 | 0.0 | 0.00 | 0.00 | 0.00 | 65 | 1012.8 |
| 20260509011000 | 58 | 302 | 0.0 | 0.0 | 0.00 | 0.00 | 0.00 | 64 | 1012.7 |
| 20260509010002 | 58 | 302 | 0.0 | 0.0 | 0.00 | 0.00 | 0.00 | 63 | 1012.5 |
| 20260509004000 | 59 | 9 | 0.0 | 0.0 | 0.00 | 0.00 | 0.00 | 59 | 1012.5 |
| 20260509003000 | 60 | 9 | 0.0 | 0.0 | 0.00 | 0.00 | 0.00 | 58 | 1012.6 |
| 20260509002001 | 60 | 9 | 0.0 | 0.0 | 0.00 | 0.00 | 0.00 | 56 | 1012.6 |
| 20260509001000 | 61 | 9 | 0.0 | 0.0 | 0.00 | 0.00 | 0.00 | 55 | 1012.4 |
| 20260509000002 | 61 | 10 | 0.0 | 0.0 | 0.00 | 0.00 | 0.00 | 55 | 1012.5 |
| 20260508235001 | 62 | 10 | 0.0 | 0.0 | 0.00 | 0.00 | 0.00 | 53 | 1012.4 |
| 20260508234001 | 62 | 9 | 0.0 | 0.0 | 0.00 | 0.00 | 0.00 | 52 | 1012.2 |
| 20260508233000 | 63 | 10 | 0.0 | 1.7 | 0.00 | 0.00 | 0.00 | 51 | 1012.1 |
| 20260508232000 | 63 | 9 | 0.0 | 2.6 | 0.00 | 0.00 | 0.00 | 48 | 1011.8 |
| 20260508231001 | 63 | 343 | 0.0 | 0.9 | 0.00 | 0.00 | 0.00 | 49 | 1011.8 |
| 20260508230001 | 63 | 284 | 0.0 | 0.9 | 0.00 | 0.00 | 0.00 | 48 | 1011.7 |
| 20260508225001 | 63 | 284 | 0.0 | 2.6 | 0.00 | 0.00 | 0.00 | 48 | 1012.0 |